Simultaneous Nadir Overpasses (SNOs) Predictions

Prediction of SNOs between NOAA-19 and NPP Satellite Orbit:

Table of predicted SNOs for the next 14.0 days since TLE Epoch: 3/16/2012
Index Date (NOAA-19) Time (NOAA-19) NOAA-19 Lat,Lon Date (NPP) Time (NPP) NPP Lat,Lon Distance(km) Time Diff (sec)
1 03/28/2012 01:23:43 80.52, 113.91 03/28/2012 01:24:53 80.52, 113.92 0.20 70
2 03/28/2012 02:14:42 -80.47, -78.12 03/28/2012 02:15:36 -80.48, -78.18 1.15 54
3 03/28/2012 03:05:44 80.42, 89.86 03/28/2012 03:06:19 80.42, 89.83 0.58 35
4 03/28/2012 03:56:42 -80.35,-101.87 03/28/2012 03:57:01 -80.35,-101.97 1.93 19
5 03/28/2012 04:47:43 80.27, 66.41 03/28/2012 04:47:43 80.27, 66.34 1.28 0
6 03/28/2012 05:38:42 -80.21,-125.67 03/28/2012 05:38:26 -80.22,-125.80 2.70 16
7 03/28/2012 06:29:42
